GW5156 Weather Reports


time (UTC)temp
C
wind
direction
speed
KPH
gust
KPH
rain 1hr
cm
rain 24hr
cm
rain mn
cm
humidity
%
barometer
mb
20260504110700 12 257 1.6 3.2 0.00 0.00 0.00 70 1017.0
20260504110200 11 249 1.6 3.2 0.00 0.00 0.00 72 1016.0
20260504100157 9 289 1.6 6.4 0.00 0.00 0.00 84 1016.0
20260504081657 8 101 0.0 1.6 0.00 0.00 0.00 86 1016.0
20260504081157 8 288 1.6 3.2 0.00 0.00 0.00 86 1016.0
20260504080657 8 259 1.6 3.2 0.00 0.00 0.00 86 1016.0
20260504080200 8 274 1.6 3.2 0.00 0.00 0.00 85 1016.0
20260504070156 9 78 1.6 3.2 0.00 0.00 0.00 82 1017.0
20260504060157 10 32 0.0 1.6 0.00 0.00 0.00 78 1017.0
20260504050655 10 41 1.6 4.8 0.00 0.00 0.00 75 1018.0
20260504050158 10 41 4.8 6.4 0.00 0.00 0.00 75 1018.0
20260504045656 10 25 0.0 3.2 0.00 0.00 0.00 75 1018.0
20260504045155 10 51 0.0 3.2 0.00 0.00 0.00 74 1018.0
20260504044656 11 66 1.6 3.2 0.00 0.00 0.00 74 1018.0
20260504044156 11 142 1.6 3.2 0.00 0.00 0.00 73 1018.0
20260504043656 11 36 0.0 3.2 0.00 0.00 0.00 72 1018.0
20260504043156 11 90 1.6 3.2 0.00 0.00 0.00 72 1018.0
20260504042655 11 350 0.0 1.6 0.00 0.00 0.00 71 1018.0
20260504042155 11 35 1.6 3.2 0.00 0.00 0.00 70 1017.0
20260504041657 11 359 1.6 3.2 0.00 0.00 0.00 70 1017.0
20260504041156 11 346 3.2 3.2 0.00 0.00 0.00 70 1017.0
20260504040655 11 18 1.6 3.2 0.00 0.00 0.00 71 1017.0
20260504040155 11 349 1.6 3.2 0.00 0.00 0.00 71 1017.0
20260504035655 10 20 3.2 4.8 0.00 0.00 0.00 73 1017.0
20260504035156 10 27 3.2 6.4 0.00 0.00 0.00 74 1018.0
20260504034655 10 24 3.2 6.4 0.00 0.00 0.00 73 1018.0
20260504034155 10 351 1.6 6.4 0.00 0.00 0.00 73 1018.0
20260504033657 10 28 3.2 4.8 0.00 0.00 0.00 73 1018.0
20260504033155 10 30 1.6 3.2 0.00 0.00 0.00 72 1018.0
20260504032656 10 42 3.2 4.8 0.00 0.00 0.00 72 1018.0
20260504032157 10 26 3.2 4.8 0.00 0.00 0.00 72 1018.0
20260504031655 10 23 1.6 3.2 0.00 0.00 0.00 71 1018.0
20260504031158 10 41 1.6 3.2 0.00 0.00 0.00 71 1018.0
20260504030655 11 67 0.0 3.2 0.00 0.00 0.00 71 1018.0
20260504030155 11 0 3.2 3.2 0.00 0.00 0.00 70 1018.0
20260504025655 11 44 0.0 3.2 0.00 0.00 0.00 69 1018.0
20260504025157 11 59 0.0 1.6 0.00 0.00 0.00 69 1018.0
20260504024655 11 38 0.0 1.6 0.00 0.00 0.00 68 1018.0
20260504024157 11 45 0.0 1.6 0.00 0.00 0.00 67 1018.0
20260504023215 11 81 0.0 0.0 0.00 0.00 0.00 67 1018.0
20260504022655 11 334 0.0 1.6 0.00 0.00 0.00 66 1018.0
20260504022157 12 350 0.0 1.6 0.00 0.00 0.00 66 1018.0
20260504021655 12 328 0.0 0.0 0.00 0.00 0.00 65 1018.0
20260504021155 12 281 0.0 1.6 0.00 0.00 0.00 65 1018.0
20260504020655 12 31 0.0 0.0 0.00 0.00 0.00 65 1018.0
20260504020156 12 28 0.0 1.6 0.00 0.00 0.00 65 1018.0
20260504015655 12 333 0.0 1.6 0.00 0.00 0.00 64 1018.0
20260504015155 12 21 1.6 1.6 0.00 0.00 0.00 65 1018.0
20260504014656 12 44 0.0 1.6 0.00 0.00 0.00 64 1018.0
20260504014155 12 350 1.6 1.6 0.00 0.00 0.00 64 1018.0
20260504013655 12 338 1.6 1.6 0.00 0.00 0.00 63 1017.0
20260504013156 13 31 0.0 1.6 0.00 0.00 0.00 62 1017.0
20260504012655 13 26 0.0 0.0 0.00 0.00 0.00 62 1017.0
20260504012155 13 23 1.6 1.6 0.00 0.00 0.00 62 1017.0
20260504011655 13 20 0.0 1.6 0.00 0.00 0.00 61 1017.0
20260504011155 13 9 0.0 1.6 0.00 0.00 0.00 61 1017.0
20260504010655 13 18 1.6 3.2 0.00 0.00 0.00 60 1017.0
20260504010156 13 69 0.0 1.6 0.00 0.00 0.00 60 1017.0
20260504005655 14 13 0.0 1.6 0.00 0.00 0.00 59 1017.0
20260504005155 14 0 1.6 3.2 0.00 0.00 0.00 59 1017.0
20260504004656 15 40 0.0 1.6 0.00 0.00 0.00 57 1017.0
20260504004155 15 20 1.6 3.2 0.00 0.00 0.00 55 1017.0
20260504003656 15 58 1.6 3.2 0.00 0.00 0.00 55 1017.0
20260504003155 15 48 0.0 1.6 0.00 0.00 0.00 53 1017.0
20260504002656 16 8 0.0 1.6 0.00 0.00 0.00 51 1017.0
20260504002156 16 311 0.0 1.6 0.00 0.00 0.00 50 1017.0
20260504001655 16 312 1.6 1.6 0.00 0.00 0.00 50 1017.0
20260504001155 17 63 1.6 3.2 0.00 0.00 0.00 48 1017.0
20260504000656 17 335 3.2 4.8 0.00 0.00 0.00 45 1017.0
20260504000156 18 330 3.2 3.2 0.00 0.00 0.00 43 1017.0
20260503235656 18 335 1.6 4.8 0.00 0.00 0.00 42 1017.0
20260503235155 18 230 4.8 6.4 0.00 0.00 0.00 40 1017.0
20260503234655 18 325 1.6 3.2 0.00 0.00 0.00 40 1017.0
20260503234157 18 213 3.2 4.8 0.00 0.00 0.00 40 1017.0
20260503233655 18 332 1.6 3.2 0.00 0.00 0.00 40 1017.0
20260503233155 18 249 3.2 4.8 0.00 0.00 0.00 40 1017.0
20260503232655 19 31 3.2 4.8 0.00 0.00 0.00 41 1017.0
20260503232155 19 272 0.0 1.6 0.00 0.00 0.00 41 1017.0
20260503231655 19 202 3.2 4.8 0.00 0.00 0.00 39 1017.0
20260503231155 19 228 6.4 12.9 0.00 0.00 0.00 39 1017.0
20260503230655 20 261 4.8 8.0 0.00 0.00 0.00 39 1017.0
20260503230156 20 304 3.2 6.4 0.00 0.00 0.00 38 1018.0
20260503225655 20 223 1.6 3.2 0.00 0.00 0.00 40 1018.0
20260503225156 20 258 8.0 11.3 0.00 0.00 0.00 38 1018.0
20260503224655 20 286 1.6 6.4 0.00 0.00 0.00 38 1018.0
20260503224156 20 284 3.2 4.8 0.00 0.00 0.00 38 1018.0
20260503223656 20 252 6.4 8.0 0.00 0.00 0.00 37 1018.0
20260503223155 20 273 8.0 9.7 0.00 0.00 0.00 37 1018.0
20260503222655 20 293 3.2 6.4 0.00 0.00 0.00 38 1018.0
20260503222155 20 253 8.0 9.7 0.00 0.00 0.00 38 1018.0
20260503221655 20 246 6.4 11.3 0.00 0.00 0.00 38 1018.0
20260503221157 20 251 4.8 9.7 0.00 0.00 0.00 37 1018.0
20260503220655 20 249 8.0 12.9 0.00 0.00 0.00 36 1018.0
20260503220155 20 267 3.2 6.4 0.00 0.00 0.00 37 1018.0
20260503215655 20 237 3.2 11.3 0.00 0.00 0.00 36 1018.0
20260503215155 20 298 3.2 6.4 0.00 0.00 0.00 38 1018.0
20260503214655 20 342 4.8 9.7 0.00 0.00 0.00 37 1018.0
20260503214155 20 326 4.8 9.7 0.00 0.00 0.00 38 1018.0
20260503213655 20 249 8.0 14.5 0.00 0.00 0.00 37 1018.0
20260503213156 20 330 9.7 14.5 0.00 0.00 0.00 37 1018.0
20260503212655 20 252 8.0 12.9 0.00 0.00 0.00 37 1018.0
20260503212155 20 277 8.0 12.9 0.00 0.00 0.00 36 1018.0
20260503211656 20 239 6.4 9.7 0.00 0.00 0.00 36 1018.0
20260503211155 20 272 6.4 11.3 0.00 0.00 0.00 35 1018.0
20260503210656 20 197 3.2 6.4 0.00 0.00 0.00 36 1018.0
20260503210155 20 275 9.7 12.9 0.00 0.00 0.00 37 1018.0
20260503205655 20 267 3.2 4.8 0.00 0.00 0.00 37 1018.0
20260503205155 20 205 4.8 9.7 0.00 0.00 0.00 38 1018.0
20260503204655 20 238 4.8 8.0 0.00 0.00 0.00 39 1019.0
20260503204155 19 198 3.2 6.4 0.00 0.00 0.00 38 1019.0
20260503203655 19 276 11.3 19.3 0.00 0.00 0.00 38 1019.0
20260503203155 19 327 8.0 9.7 0.00 0.00 0.00 39 1019.0
20260503202655 19 248 8.0 9.7 0.00 0.00 0.00 38 1019.0
20260503202155 19 200 4.8 8.0 0.00 0.00 0.00 39 1019.0
20260503201656 19 261 6.4 9.7 0.00 0.00 0.00 40 1019.0
20260503201155 19 233 6.4 12.9 0.00 0.00 0.00 40 1019.0
20260503200656 19 211 8.0 12.9 0.00 0.00 0.00 39 1019.0
20260503200157 19 245 8.0 11.3 0.00 0.00 0.00 42 1019.0
20260503195655 19 257 6.4 12.9 0.00 0.00 0.00 42 1019.0
20260503195155 19 335 4.8 11.3 0.00 0.00 0.00 42 1020.0
20260503194655 19 219 6.4 9.7 0.00 0.00 0.00 43 1020.0
20260503194155 19 229 8.0 12.9 0.00 0.00 0.00 43 1020.0
20260503193656 18 72 6.4 11.3 0.00 0.00 0.00 43 1020.0
20260503193155 19 197 11.3 17.7 0.00 0.00 0.00 43 1020.0
20260503192655 19 269 6.4 9.7 0.00 0.00 0.00 43 1020.0
20260503192156 19 318 4.8 8.0 0.00 0.00 0.00 42 1020.0
20260503191655 19 248 4.8 8.0 0.00 0.00 0.00 43 1020.0
20260503191156 19 327 3.2 9.7 0.00 0.00 0.00 43 1020.0
20260503190655 19 296 3.2 6.4 0.00 0.00 0.00 42 1020.0
20260503190155 19 204 6.4 11.3 0.00 0.00 0.00 44 1020.0
20260503185656 18 297 6.4 9.7 0.00 0.00 0.00 43 1020.0
20260503185156 18 306 3.2 6.4 0.00 0.00 0.00 44 1020.0
20260503184655 18 219 9.7 14.5 0.00 0.00 0.00 45 1021.0
20260503184156 18 169 9.7 17.7 0.00 0.00 0.00 44 1021.0
20260503183655 18 342 6.4 9.7 0.00 0.00 0.00 43 1021.0
20260503183156 18 222 3.2 8.0 0.00 0.00 0.00 43 1021.0
20260503182655 18 237 4.8 8.0 0.00 0.00 0.00 43 1021.0
20260503182158 18 159 3.2 6.4 0.00 0.00 0.00 41 1021.0
20260503181655 18 19 8.0 12.9 0.00 0.00 0.00 42 1021.0
20260503181155 18 358 4.8 8.0 0.00 0.00 0.00 41 1021.0
20260503180655 18 255 6.4 11.3 0.00 0.00 0.00 43 1021.0
20260503180157 18 221 3.2 6.4 0.00 0.00 0.00 43 1021.0
20260503175655 18 249 6.4 9.7 0.00 0.00 0.00 42 1021.0
20260503175155 18 343 1.6 3.2 0.00 0.00 0.00 42 1021.0
20260503174655 17 248 6.4 11.3 0.00 0.00 0.00 44 1021.0
20260503174155 17 249 3.2 6.4 0.00 0.00 0.00 43 1021.0
20260503173655 17 74 6.4 8.0 0.00 0.00 0.00 45 1021.0
20260503173155 17 136 9.7 12.9 0.00 0.00 0.00 44 1021.0
20260503172656 17 226 6.4 12.9 0.00 0.00 0.00 45 1021.0
20260503172157 17 315 3.2 6.4 0.00 0.00 0.00 45 1021.0
20260503171656 17 131 6.4 11.3 0.00 0.00 0.00 46 1021.0
20260503171155 17 202 4.8 8.0 0.00 0.00 0.00 45 1022.0
20260503170656 16 324 4.8 9.7 0.00 0.00 0.00 45 1022.0
20260503170156 17 168 3.2 6.4 0.00 0.00 0.00 41 1022.0
20260503160156 15 205 4.8 8.0 0.00 0.00 0.00 48 1022.0
20260503150656 14 24 3.2 6.4 0.00 0.00 0.00 56 1022.0
20260503150157 14 138 6.4 12.9 0.00 0.00 0.00 58 1022.0
20260503140158 12 117 6.4 6.4 0.00 0.00 0.00 67 1022.0
20260503131155 11 23 8.0 9.7 0.00 0.00 0.00 77 1022.0
20260503130655 11 0 6.4 8.0 0.00 0.00 0.00 77 1022.0
20260503130157 11 37 3.2 9.7 0.00 0.00 0.00 79 1022.0
20260503120157 9 303 0.0 1.6 0.00 0.00 0.00 89 1021.0